Flag for Germany Weather past 2 weeks in Rheinfelden (Baden), Baden-Württemberg, Germany

Now
77 °F

Broken clouds.


Feels Like: 79 °F
Forecast: 57 / 70 °F
Wind: 9 mph from West

Location: Bale-Mulhouse

Current Time: Sep 1, 2015 at 12:50:14 PM

Latest Report: Sep 1, 2015 at 12:30 PM


Visibility: N/A

Pressure: 29.89 "Hg

Humidity: 54%

Dew point: 59 °F

Location of Rheinfelden (Baden)Location

Historic Weather in Rheinfelden (Baden) — Graph

°F

Rheinfelden (Baden) temperature yesterday

Maximum temperature yesterday: 93 °F (at 2:00 PM)
Minimum temperature yesterday: 61 °F (at 5:30 AM)
Average temperature yesterday: 75 °F

Past Weeks' High & Low Weather Summary

 TemperatureHumidityPressure
High93 °F (Aug 30, 4:00 PM)100% (Aug 17, 10:30 PM)30.24 "Hg (Aug 17, 10:30 PM)
Low48 °F (Aug 20, 6:30 AM)23% (Aug 30, 5:00 PM)29.71 "Hg (Aug 24, 5:00 AM)
Average68 °F69%30.03 "Hg
* Reported Aug 17 11:00 AM — Sep 1 11:30 AM, Rheinfelden (Baden), Weather by CustomWeather, © 2015

Note: Actual official high and low records may vary slightly from our data, if they occured in-between our weather recording intervals... More about our weather records

Advertising

Rheinfelden (Baden) weather history for previous 24 hours

 ConditionsComfort  
Time TempWeatherWind HumidityBarometerVisibility
11:30 AM
Tue, Sep 1
75 °FBroken clouds.9 mph61%29.89 "HgN/A
11:00 AM73 °FBroken clouds.5 mph65%29.89 "HgN/A
10:00 AM70 °FLight rain. Broken clouds.6 mph78%29.89 "HgN/A
9:30 AM70 °FBroken clouds.5 mph73%29.86 "HgN/A
9:00 AM70 °FBroken clouds.1 mph73%29.86 "HgN/A
8:30 AM70 °FSunny.3 mph69%29.86 "Hg10 mi
8:00 AM70 °FPassing clouds.6 mph69%29.83 "HgN/A
7:30 AM70 °FClear.7 mph69%29.83 "Hg10 mi
7:00 AM70 °FPassing clouds.6 mph69%29.83 "HgN/A
6:30 AM70 °FClear.6 mph69%29.83 "Hg10 mi
5:30 AM68 °FClear.6 mph73%29.86 "Hg10 mi
5:00 AM66 °FClear.1 mph78%29.86 "Hg10 mi
4:30 AM66 °FClear.No wind78%29.89 "Hg10 mi
12:30 AM68 °FPassing clouds.3 mph73%29.92 "HgN/A
11:30 PM
Mon, Aug 31
68 °FClear.1 mph73%29.89 "Hg10 mi
11:00 PM68 °FClear.2 mph73%29.89 "Hg10 mi
10:30 PM70 °FClear.1 mph69%29.89 "Hg10 mi
10:00 PM72 °FClear.2 mph65%29.89 "Hg10 mi
9:30 PM72 °FPassing clouds.3 mph65%29.89 "HgN/A
9:00 PM73 °FSunny.3 mph61%29.89 "Hg10 mi
8:00 PM82 °FSunny.5 mph42%29.89 "Hg10 mi
7:30 PM86 °FSunny.7 mph35%29.89 "Hg10 mi
7:00 PM90 °FPassing clouds.9 mph31%29.89 "HgN/A
6:30 PM91 °FPassing clouds.6 mph28%29.89 "HgN/A
6:00 PM93 °FPassing clouds.6 mph28%29.89 "HgN/A
5:30 PM93 °FPassing clouds.8 mph26%29.89 "HgN/A
5:00 PM93 °FSunny.2 mph28%29.89 "Hg10 mi
4:30 PM91 °FSunny.2 mph30%29.92 "Hg10 mi
4:00 PM91 °FPassing clouds.7 mph32%29.92 "HgN/A
3:00 PM93 °FPassing clouds.10 mph30%29.92 "HgN/A
2:30 PM93 °FPassing clouds.14 mph23%29.92 "HgN/A
2:00 PM93 °FPassing clouds.13 mph23%29.95 "HgN/A
1:30 PM91 °FPassing clouds.14 mph24%29.95 "HgN/A
1:00 PM90 °FPassing clouds.8 mph31%29.98 "HgN/A
12:30 PM88 °FPassing clouds.7 mph35%29.98 "HgN/A
12:00 PM86 °FPassing clouds.6 mph38%30.01 "HgN/A
Weather by CustomWeather, © 2015

See weather overviewHow to use our weather pages